Wind_Speed
27 29 31 32 33 32 30 27 24 19 19 17 18 18 17 15 17 16 16 16 16 14 14 14 15 15 16 15 14 14 12 11 12 13 13 12 11 10 12 14 15 13 11
28 28 27 30 33 34 34 30 27 24 22 22 20 20 20 20 23 25 19 15 16 16 16 16 14 15 16 17 17 15 15 14 15 15 15 14 15 14 16 17 16 15 14
28 29 28 27 32 36 35 31 30 27 26 24 23 23 21 18 15 19 20 19 18 17 17 19 17 18 19 18 18 18 16 17 17 17 15 16 16 17 19 19 18 18 18
25 29 34 30 27 32 34 33 30 29 28 27 25 24 22 21 20 20 21 21 21 22 21 20 20 20 19 19 21 20 18 18 18 19 19 18 17 18 20 22 23 23 21
20 27 32 34 32 29 33 34 33 33 30 30 29 27 25 25 25 23 24 25 24 23 21 20 20 20 19 19 21 20 20 20 19 20 20 21 22 22 22 21 21 21 23
20 29 33 34 33 33 31 30 32 33 34 31 30 31 29 28 26 26 26 26 26 24 23 22 22 21 21 20 20 19 18 19 20 20 21 22 22 21 21 22 22 21 24
11 10 15 31 36 34 30 26 26 29 30 33 32 31 33 32 30 25 24 24 24 24 23 23 22 21 21 19 18 18 17 18 19 19 21 20 21 20 21 21 19 21 24
13 20 17 16 24 31 22 24 22 26 28 29 30 29 29 29 28 26 25 24 24 26 26 25 23 19 20 22 20 19 19 19 20 20 20 20 21 19 18 18 20 21 22
7 12 16 23 24 25 26 22 16 20 29 30 30 31 31 29 29 31 28 26 27 26 24 25 24 23 22 23 23 23 22 21 21 20 21 22 22 20 20 19 17 16 20
5 6 8 18 16 15 13 15 23 26 23 25 30 30 31 32 29 29 28 27 29 28 27 27 26 27 26 25 23 24 22 21 21 22 22 22 21 20 19 18 17 15 17
6 7 6 6 11 14 12 12 14 17 19 20 23 28 31 32 28 28 29 29 30 31 30 30 31 30 27 25 24 21 20 21 22 22 22 21 21 17 14 13 13 11 10
6 7 6 7 7 6 7 10 9 12 11 14 16 17 21 24 27 30 30 30 29 25 26 25 23 20 18 14 16 17 19 20 21 23 22 18 14 12 8 3 4 6 7
2 3 4 4 2 2 2 1 2 2 4 8 9 7 6 6 12 13 12 13 13 13 14 13 14 15 14 15 16 17 18 19 19 14 10 7 3 3 3 5 7 8 8
4 5 3 4 3 2 2 4 1 2 1 2 3 5 6 8 9 9 6 5 4 6 7 8 9 9 8 8 4 2 1 2 1 3 3 3 2 3 4 3 4 4 6
4 5 6 4 5 6 3 1 2 3 3 5 6 5 4 5 5 3 5 4 4 4 5 4 5 3 1 3 4 3 2 2 2 3 4 5 3 1 1 1 2 3 7
6 5 5 3 2 2 1 2 4 3 3 3 2 2 1 2 4 5 3 3 4 4 3 1 3 3 3 4 4 4 4 4 4 4 4 4 3 1 1 2 4 5 6
4 3 2 3 3 3 3 4 3 2 1 2 3 3 3 2 2 4 5 7 8 7 7 7 6 5 4 5 4 3 2 1 2 3 3 2 2 2 3 2 1 1 3
5 3 3 3 4 3 2 1 1 2 2 2 2 2 2 2 3 3 4 5 6 7 6 6 4 3 3 3 3 3 3 2 1 1 2 3 4 3 2 1 2 1 4
5 4 4 4 4 3 3 2 3 4 4 4 5 4 3 2 2 3 4 3 3 3 4 4 4 3 3 2 2 2 2 2 3 3 4 3 3 2 3 2 2 2 4
5 5 6 6 7 6 7 8 7 7 7 7 6 5 5 4 3 3 3 5 5 4 4 3 2 2 2 2 2 2 2 2 3 4 4 5 4 4 4 4 3 3 3
6 7 9 10 10 9 8 7 6 6 7 6 6 6 5 4 4 3 3 4 5 4 4 4 4 3 2 1 2 2 2 2 3 4 5 4 4 4 4 5 5 5 5
7 8 8 8 7 6 5 5 4 4 5 5 5 5 5 2 2 2 2 4 4 3 3 2 2 0 1 0 0 0 1 2 1 2 3 4 4 4 4 3 4 6 6
7 5 7 6 4 2 3 2 2 2 2 2 1 1 3 4 1 2 2 3 4 4 3 3 4 3 1 1 1 1 0 1 2 2 2 3 3 4 5 6 5 6 7
12 8 7 9 8 5 8 9 9 6 7 7 5 6 5 3 2 1 4 3 4 5 5 4 5 5 5 5 5 5 3 3 2 1 3 3 1 2 3 4 6 7 7
12 12 11 11 10 10 9 10 9 9 9 9 9 8 8 8 10 9 8 8 8 7 6 6 6 6 5 5 4 3 2 2 3 2 1 1 1 2 3 5 5 5 5
9 12 15 17 18 17 15 11 12 13 13 12 11 12 13 13 14 14 15 15 13 11 11 10 10 9 8 7 6 6 6 7 5 6 8 6 7 6 5 3 5 6 5
Wind_Direction
226 228 226 228 227 225 231 233 232 236 234 236 231 236 240 244 237 249 260 255 248 256 262 265 262 264 268 275 280 279 277 278 281 288 284 283 288 291 283 285 286 289 288
232 235 235 233 227 227 230 236 234 238 241 239 238 240 245 254 254 246 251 258 252 258 260 265 269 263 266 273 276 277 268 270 279 286 287 287 283 285 281 279 284 278 279
241 236 237 238 232 229 229 237 241 245 244 244 241 238 246 248 254 242 249 257 257 259 263 265 263 265 262 264 269 272 279 274 276 277 283 285 287 282 278 278 282 280 279
243 249 241 238 235 232 233 239 245 247 246 246 244 249 251 245 253 251 253 258 259 259 265 265 259 261 263 264 263 268 269 272 276 275 276 280 286 288 280 277 275 277 273
244 252 248 241 238 239 240 245 248 247 247 248 252 252 253 254 253 251 259 264 264 262 262 259 258 260 263 264 264 263 264 268 273 274 274 275 279 285 286 288 283 275 268
245 249 249 247 242 241 241 246 245 243 246 248 250 251 252 254 256 257 258 263 263 260 259 260 262 258 259 264 263 264 262 268 273 276 277 279 285 288 287 285 278 271 269
289 231 236 235 244 242 235 237 244 242 246 249 251 252 251 257 255 254 254 259 259 257 258 264 260 257 256 259 264 264 265 268 273 277 279 283 284 285 284 283 275 273 276
265 246 253 231 228 233 241 232 232 242 244 247 249 251 250 253 254 252 254 256 258 256 256 260 260 258 255 256 261 263 265 270 275 277 279 282 285 285 281 279 279 278 275
268 247 242 239 252 231 236 252 245 249 246 246 249 254 252 252 257 256 255 251 255 257 257 258 262 263 259 256 258 263 266 270 275 276 277 280 281 281 282 281 278 275 273
308 305 271 236 243 242 229 234 262 268 264 253 249 249 251 250 256 255 252 255 259 261 260 258 263 265 267 264 259 262 266 275 278 278 276 274 274 275 277 281 282 278 276
270 279 245 229 235 249 252 256 268 259 265 270 263 254 247 248 252 250 257 260 258 259 258 260 263 263 262 260 262 262 268 268 270 270 268 268 266 267 273 281 282 284 283
296 287 262 239 241 245 231 242 249 247 256 266 263 260 254 256 257 261 263 267 267 264 265 267 270 273 281 277 268 263 266 268 270 259 251 248 253 265 274 296 322 323 318
255 236 226 226 196 162 176 286 286 299 294 287 264 253 239 249 279 264 264 264 264 262 262 267 273 275 279 278 276 273 268 264 269 259 267 254 240 262 295 317 323 327 325
177 166 182 198 198 212 143 7 303 205 215 1 335 251 215 224 234 247 248 257 265 267 268 277 274 278 279 285 282 273 314 3 168 167 202 225 235 261 293 342 21 43 53
175 164 159 176 161 170 267 316 137 150 124 101 95 93 96 101 102 145 175 191 211 232 254 252 262 237 232 257 268 299 299 259 241 238 236 238 232 232 176 94 84 87 97
198 189 199 225 210 173 154 156 134 120 126 126 119 110 89 123 136 156 148 209 235 252 245 221 237 241 242 241 258 270 268 267 246 230 225 210 143 121 356 103 116 117 104
179 179 162 123 127 131 135 140 147 186 195 203 194 204 229 225 233 236 230 224 215 212 216 222 233 235 258 262 252 250 246 220 178 187 176 150 145 154 150 185 215 210 177
173 177 177 181 142 134 133 124 125 180 185 205 180 166 162 180 208 223 230 231 218 204 212 213 218 220 197 202 181 166 161 150 161 169 178 161 167 172 179 219 207 175 181
141 142 154 157 150 148 151 166 144 137 122 119 120 127 118 113 120 144 145 149 148 154 163 164 160 170 194 202 201 192 185 174 166 178 183 190 207 242 234 225 232 223 229
123 132 124 123 131 129 118 110 98 101 103 97 95 95 94 90 85 98 114 116 105 108 104 110 124 152 174 189 180 188 190 198 214 219 213 229 245 241 239 240 245 236 232
131 131 128 124 122 123 116 106 100 97 104 97 85 77 88 85 84 110 134 151 134 119 109 99 100 96 100 124 157 198 215 217 222 235 235 241 242 232 235 241 240 242 263
154 154 148 140 129 122 120 112 115 117 102 103 104 86 65 73 104 110 128 170 166 175 176 197 196 215 316 298 186 287 237 209 234 225 226 224 234 232 246 273 252 250 259
190 194 194 184 170 207 240 240 225 208 181 162 161 95 60 47 54 181 168 176 191 204 231 224 224 225 247 215 159 73 273 254 247 233 219 224 234 255 280 286 274 267 270
219 217 212 220 229 263 261 244 238 226 230 233 248 260 261 264 297 261 217 196 176 183 182 169 157 133 119 119 106 95 90 59 33 236 225 225 252 324 303 296 292 281 264
229 237 243 247 250 270 302 232 234 239 246 256 260 263 267 267 254 248 238 222 206 192 175 164 166 163 151 139 129 115 81 61 59 47 266 252 274 344 359 349 326 309 289
248 252 254 256 257 262 268 259 256 260 258 261 265 266 262 257 251 251 239 232 227 221 216 215 214 216 226 237 245 249 259 261 263 284 297 280 266 277 283 298 314 304 264
Height
1542 1546 1550 1553 1557 1561 1564 1568 1571 1573 1575 1577 1578 1581 1582 1583 1584 1585 1587 1587 1588 1589 1589 1589 1590 1590 1591 1591 1591 1591 1590 1590 1589 1588 1587 1586 1585 1585 1585 1584 1583 1582 1580
1537 1541 1544 1548 1552 1556 1559 1563 1566 1569 1571 1573 1575 1576 1578 1580 1581 1581 1583 1583 1584 1584 1586 1586 1587 1587 1587 1588 1588 1588 1588 1587 1586 1585 1584 1584 1583 1583 1582 1581 1580 1579 1579
1534 1536 1539 1542 1546 1549 1554 1558 1562 1565 1567 1569 1570 1571 1573 1575 1576 1578 1579 1580 1580 1580 1581 1582 1582 1583 1583 1584 1584 1584 1584 1584 1583 1581 1581 1580 1580 1579 1578 1578 1577 1577 1576
1529 1532 1535 1538 1542 1545 1549 1553 1556 1559 1562 1564 1567 1568 1569 1571 1572 1574 1575 1575 1576 1576 1576 1576 1576 1577 1578 1579 1579 1579 1579 1579 1579 1578 1577 1576 1575 1574 1574 1574 1573 1573 1573
1522 1526 1530 1534 1538 1541 1544 1547 1550 1553 1555 1558 1561 1563 1565 1566 1567 1569 1570 1571 1571 1571 1571 1571 1571 1572 1572 1573 1573 1574 1574 1574 1574 1573 1573 1573 1571 1570 1569 1569 1569 1568 1568
1516 1519 1523 1528 1532 1535 1538 1541 1543 1546 1549 1552 1555 1557 1559 1561 1563 1564 1564 1565 1565 1566 1566 1566 1566 1566 1566 1567 1567 1568 1569 1569 1568 1568 1568 1567 1566 1565 1565 1564 1564 1563 1563
1509 1513 1517 1518 1522 1529 1533 1535 1537 1539 1543 1545 1548 1550 1552 1554 1556 1557 1558 1559 1559 1560 1560 1561 1561 1561 1561 1562 1562 1563 1563 1563 1562 1562 1562 1562 1561 1560 1559 1558 1558 1558 1558
1505 1511 1511 1516 1520 1522 1526 1528 1530 1534 1536 1539 1542 1543 1545 1547 1549 1551 1553 1553 1554 1554 1554 1557 1557 1556 1556 1557 1558 1558 1558 1558 1558 1557 1557 1557 1556 1555 1555 1553 1552 1552 1551
1505 1507 1510 1512 1516 1515 1516 1523 1525 1529 1531 1533 1535 1538 1539 1541 1542 1544 1546 1546 1548 1549 1549 1551 1551 1551 1551 1551 1552 1552 1552 1552 1552 1552 1551 1550 1550 1550 1549 1548 1548 1547 1546
1503 1504 1504 1508 1511 1513 1513 1514 1518 1522 1525 1526 1527 1530 1532 1533 1535 1537 1539 1540 1541 1543 1543 1543 1544 1544 1544 1545 1546 1545 1545 1547 1547 1546 1545 1545 1544 1544 1545 1544 1544 1543 1542
1503 1506 1506 1506 1508 1511 1512 1513 1515 1516 1518 1519 1520 1521 1524 1526 1528 1530 1532 1534 1535 1535 1536 1537 1537 1537 1537 1537 1538 1539 1541 1541 1541 1541 1540 1540 1539 1538 1538 1538 1539 1538 1537
1501 1503 1504 1506 1507 1508 1510 1511 1512 1514 1512 1513 1513 1516 1517 1519 1520 1522 1525 1526 1527 1528 1530 1530 1531 1531 1532 1532 1532 1533 1534 1536 1535 1534 1534 1533 1535 1535 1534 1533 1534 1534 1534
1504 1504 1507 1507 1508 1509 1509 1509 1510 1509 1511 1512 1511 1510 1512 1514 1516 1516 1518 1521 1523 1525 1526 1526 1527 1527 1528 1529 1529 1528 1530 1530 1529 1529 1531 1530 1531 1533 1533 1532 1531 1531 1532
1505 1506 1507 1508 1507 1509 1509 1509 1509 1509 1511 1510 1509 1510 1510 1509 1511 1511 1514 1518 1520 1522 1523 1522 1523 1524 1521 1525 1526 1526 1527 1528 1528 1529 1531 1532 1531 1531 1532 1531 1532 1532 1531
1504 1505 1506 1507 1507 1508 1510 1508 1508 1510 1511 1511 1511 1512 1513 1511 1509 1511 1515 1515 1518 1519 1521 1520 1521 1522 1521 1524 1526 1526 1526 1527 1527 1529 1530 1531 1531 1530 1532 1532 1533 1533 1532
1504 1504 1506 1506 1506 1507 1508 1509 1509 1512 1512 1513 1513 1514 1515 1516 1515 1515 1514 1518 1518 1518 1519 1519 1522 1522 1522 1524 1525 1525 1525 1525 1526 1526 1528 1529 1531 1532 1533 1534 1535 1535 1535
1505 1506 1506 1506 1508 1509 1511 1511 1510 1512 1512 1513 1514 1514 1514 1515 1516 1517 1517 1517 1517 1517 1520 1522 1522 1521 1522 1524 1524 1525 1525 1526 1527 1527 1528 1528 1529 1531 1533 1535 1536 1536 1535
1505 1506 1507 1508 1508 1509 1511 1510 1510 1511 1511 1512 1512 1513 1514 1515 1515 1516 1518 1518 1518 1517 1518 1519 1519 1520 1520 1522 1523 1522 1524 1524 1526 1528 1530 1530 1532 1532 1532 1534 1536 1536 1536
1505 1506 1507 1507 1508 1510 1511 1512 1513 1512 1511 1512 1512 1514 1515 1516 1516 1516 1517 1519 1519 1518 1519 1519 1518 1519 1522 1523 1523 1522 1523 1524 1524 1526 1528 1530 1531 1532 1533 1533 1535 1535 1536
1507 1508 1508 1510 1511 1513 1514 1514 1514 1513 1514 1514 1515 1515 1514 1516 1518 1518 1518 1518 1519 1521 1521 1520 1521 1521 1522 1523 1522 1523 1523 1523 1525 1526 1526 1529 1529 1530 1531 1532 1534 1533 1534
1509 1510 1511 1511 1513 1514 1515 1515 1516 1516 1516 1515 1516 1516 1517 1517 1517 1518 1519 1520 1521 1521 1521 1523 1523 1523 1523 1523 1522 1524 1524 1523 1523 1525 1525 1526 1528 1529 1529 1530 1530 1530 1532
1512 1513 1514 1514 1514 1515 1516 1517 1517 1517 1515 1516 1516 1518 1517 1517 1519 1518 1520 1521 1522 1522 1523 1524 1524 1523 1523 1522 1523 1524 1524 1523 1523 1523 1523 1525 1527 1529 1528 1527 1528 1528 1529
1512 1513 1514 1514 1514 1515 1516 1516 1517 1518 1518 1517 1518 1517 1517 1518 1519 1519 1520 1521 1522 1523 1523 1523 1523 1522 1522 1522 1523 1523 1524 1524 1523 1523 1524 1525 1525 1526 1525 1527 1526 1527 1527
1510 1511 1512 1513 1514 1515 1516 1516 1518 1518 1518 1518 1516 1517 1517 1517 1517 1518 1520 1520 1520 1522 1524 1523 1523 1522 1522 1521 1521 1523 1524 1522 1522 1524 1525 1525 1523 1522 1524 1524 1524 1524 1524
1505 1506 1508 1509 1509 1510 1510 1511 1512 1513 1513 1513 1512 1513 1513 1514 1516 1518 1519 1520 1521 1522 1522 1521 1521 1522 1524 1523 1523 1523 1523 1523 1523 1525 1524 1523 1522 1522 1522 1521 1522 1522 1521
1502 1503 1504 1505 1506 1507 1507 1508 1508 1509 1509 1509 1509 1510 1511 1512 1514 1516 1517 1518 1519 1519 1519 1520 1522 1522 1522 1521 1521 1521 1522 1523 1522 1522 1521 1521 1521 1522 1521 1520 1520 1519 1519